EN

Hourly Weather Alindao

Today, 26 January, Tuesday

Time Temperature Precipitation Wind Pressure Humidity
00:00 +24°C° 0 mm 1 mps 718 mmHg 73%
01:00 +23°C° 0 mm 1 mps 718 mmHg 81%
02:00 +23°C° 0 mm 1 mps 718 mmHg 85%
03:00 +22°C° 0 mm 1 mps 718 mmHg 89%
04:00 +20°C° 0 mm 0 mps 718 mmHg 93%
05:00 +21°C° 0 mm 0 mps 718 mmHg 88%
06:00 +22°C° 0 mm 0 mps 719 mmHg 82%
07:00 +23°C° 0 mm 0 mps 719 mmHg 77%
08:00 +28°C° 0 mm 0 mps 720 mmHg 61%
09:00 +33°C° 0 mm 0 mps 720 mmHg 46%
10:00 +40°C° 0 mm 1 mps 721 mmHg 31%
11:00 +41°C° 0 mm 1 mps 720 mmHg 27%
12:00 +41°C° 0 mm 2 mps 719 mmHg 23%
13:00 +42°C° 0 mm 2 mps 718 mmHg 19%
14:00 +41°C° 0 mm 2 mps 717 mmHg 20%
15:00 +40°C° 0 mm 2 mps 717 mmHg 20%
16:00 +39°C° 0 mm 2 mps 716 mmHg 21%
17:00 +36°C° 0 mm 1 mps 716 mmHg 25%
18:00 +33°C° 0 mm 1 mps 716 mmHg 29%
19:00 +28°C° 0 mm 0 mps 716 mmHg 32%
20:00 +27°C° 0 mm 0 mps 716 mmHg 35%
21:00 +26°C° 0 mm 0 mps 717 mmHg 37%
22:00 +25°C° 0 mm 0 mps 717 mmHg 40%
23:00 +24°C° 0 mm 0 mps 717 mmHg 42%

Tomorrow, 27 January, Wednesday

Time Temperature Precipitation Wind Pressure Humidity
00:00 +23°C° 0 mm 0 mps 717 mmHg 43%
01:00 +23°C° 0 mm 0 mps 716 mmHg 45%
02:00 +22°C° 0 mm 0 mps 717 mmHg 46%
03:00 +21°C° 0 mm 0 mps 717 mmHg 47%
04:00 +23°C° 0 mm 1 mps 717 mmHg 48%
05:00 +22°C° 0 mm 0 mps 718 mmHg 47%
06:00 +23°C° 0 mm 0 mps 718 mmHg 45%
07:00 +24°C° 0 mm 0 mps 719 mmHg 43%
08:00 +29°C° 0 mm 0 mps 719 mmHg 36%
09:00 +35°C° 0 mm 1 mps 720 mmHg 30%
10:00 +41°C° 0 mm 1 mps 720 mmHg 23%
11:00 +43°C° 0 mm 1 mps 719 mmHg 20%
12:00 +44°C° 0 mm 1 mps 718 mmHg 17%
13:00 +45°C° 0 mm 1 mps 717 mmHg 15%
14:00 +44°C° 0 mm 1 mps 717 mmHg 15%
15:00 +42°C° 0 mm 1 mps 716 mmHg 16%
16:00 +41°C° 0 mm 1 mps 715 mmHg 17%
17:00 +37°C° 0 mm 1 mps 715 mmHg 21%
18:00 +34°C° 0 mm 1 mps 715 mmHg 25%
19:00 +31°C° 0 mm 1 mps 715 mmHg 29%
20:00 +30°C° 0 mm 1 mps 716 mmHg 33%
21:00 +29°C° 0 mm 1 mps 716 mmHg 37%
22:00 +28°C° 0 mm 1 mps 717 mmHg 41%
23:00 +27°C° 0 mm 1 mps 717 mmHg 46%

Day after tomorrow, 28 January, Thursday

Time Temperature Precipitation Wind Pressure Humidity
00:00 +26°C° 0 mm 1 mps 717 mmHg 50%
01:00 +25°C° 0 mm 1 mps 717 mmHg 55%
02:00 +25°C° 0 mm 1 mps 717 mmHg 56%
03:00 +24°C° 0 mm 1 mps 717 mmHg 58%
04:00 +22°C° 0 mm 0 mps 717 mmHg 60%
05:00 +24°C° 0 mm 1 mps 718 mmHg 62%
06:00 +25°C° 0 mm 1 mps 719 mmHg 64%
07:00 +25°C° 0 mm 1 mps 719 mmHg 66%
08:00 +29°C° 0 mm 1 mps 720 mmHg 57%
09:00 +32°C° 0 mm 2 mps 720 mmHg 47%
10:00 +37°C° 0 mm 2 mps 720 mmHg 38%
11:00 +39°C° 0 mm 2 mps 719 mmHg 32%
12:00 +41°C° 0 mm 2 mps 718 mmHg 26%
13:00 +43°C° 0 mm 1 mps 718 mmHg 20%
14:00 +42°C° 0 mm 1 mps 717 mmHg 22%
15:00 +40°C° 0 mm 1 mps 716 mmHg 23%
16:00 +39°C° 0 mm 1 mps 716 mmHg 24%
17:00 +36°C° 0 mm 1 mps 716 mmHg 29%
18:00 +33°C° 0 mm 1 mps 716 mmHg 34%
19:00 +31°C° 0 mm 1 mps 716 mmHg 38%
20:00 +30°C° 0 mm 1 mps 717 mmHg 42%
21:00 +29°C° 0 mm 2 mps 717 mmHg 45%
22:00 +28°C° 0 mm 2 mps 718 mmHg 49%
23:00 +27°C° 0 mm 2 mps 718 mmHg 51%

29 January, Friday

Time Temperature Precipitation Wind Pressure Humidity
00:00 +27°C° 0 mm 1 mps 718 mmHg 54%
01:00 +26°C° 0 mm 1 mps 718 mmHg 57%
02:00 +25°C° 0 mm 1 mps 718 mmHg 61%
03:00 +24°C° 0 mm 1 mps 718 mmHg 66%
04:00 +21°C° 0 mm 0 mps 719 mmHg 71%
05:00 +22°C° 0 mm 0 mps 719 mmHg 70%
06:00 +23°C° 0 mm 0 mps 720 mmHg 70%
07:00 +24°C° 0 mm 0 mps 720 mmHg 69%
08:00 +29°C° 0 mm 1 mps 720 mmHg 59%
09:00 +32°C° 0 mm 1 mps 721 mmHg 50%
10:00 +36°C° 0 mm 2 mps 721 mmHg 41%
11:00 +39°C° 0 mm 1 mps 720 mmHg 35%
12:00 +41°C° 0 mm 1 mps 719 mmHg 29%
13:00 +44°C° 0 mm 1 mps 719 mmHg 24%
14:00 +41°C° 0.1 mm 1 mps 718 mmHg 28%
15:00 +39°C° 0.1 mm 2 mps 717 mmHg 32%
16:00 +36°C° 0.1 mm 3 mps 717 mmHg 35%
17:00 +34°C° 0 mm 3 mps 717 mmHg 42%
18:00 +31°C° 0 mm 2 mps 717 mmHg 48%
19:00 +28°C° 0 mm 2 mps 717 mmHg 54%
20:00 +27°C° 0 mm 1 mps 717 mmHg 58%
21:00 +26°C° 0 mm 1 mps 717 mmHg 63%
22:00 +25°C° 0 mm 1 mps 718 mmHg 67%
23:00 +25°C° 0 mm 1 mps 718 mmHg 69%

30 January, Saturday

Time Temperature Precipitation Wind Pressure Humidity
00:00 +24°C° 0 mm 1 mps 717 mmHg 71%
01:00 +24°C° 0 mm 1 mps 717 mmHg 73%
02:00 +21°C° 0 mm 0 mps 718 mmHg 74%
03:00 +21°C° 0 mm 0 mps 718 mmHg 74%
04:00 +21°C° 0 mm 0 mps 718 mmHg 75%
05:00 +22°C° 0 mm 0 mps 719 mmHg 71%
06:00 +24°C° 0 mm 1 mps 719 mmHg 67%
07:00 +25°C° 0 mm 1 mps 720 mmHg 63%
08:00 +29°C° 0 mm 2 mps 720 mmHg 46%
09:00 +34°C° 0 mm 2 mps 720 mmHg 29%
10:00 +37°C° 0 mm 3 mps 721 mmHg 13%
11:00 +39°C° 0 mm 3 mps 720 mmHg 11%
12:00 +40°C° 0 mm 3 mps 719 mmHg 10%
13:00 +43°C° 0 mm 3 mps 718 mmHg 9%
14:00 +42°C° 0 mm 3 mps 717 mmHg 9%
15:00 +42°C° 0 mm 3 mps 716 mmHg 10%
16:00 +41°C° 0 mm 2 mps 715 mmHg 10%
17:00 +37°C° 0 mm 2 mps 715 mmHg 13%
18:00 +33°C° 0 mm 1 mps 715 mmHg 15%
19:00 +27°C° 0 mm 0 mps 715 mmHg 18%
20:00 +26°C° 0 mm 0 mps 716 mmHg 19%
21:00 +25°C° 0 mm 0 mps 716 mmHg 20%
22:00 +24°C° 0 mm 0 mps 717 mmHg 21%
23:00 +25°C° 0 mm 1 mps 717 mmHg 22%

31 January, Sunday

Time Temperature Precipitation Wind Pressure Humidity
00:00 +25°C° 0 mm 1 mps 717 mmHg 23%
01:00 +24°C° 0 mm 1 mps 717 mmHg 24%
02:00 +23°C° 0 mm 1 mps 717 mmHg 26%
03:00 +22°C° 0 mm 1 mps 717 mmHg 28%
04:00 +21°C° 0 mm 1 mps 717 mmHg 30%
05:00 +22°C° 0 mm 1 mps 718 mmHg 29%
06:00 +21°C° 0 mm 0 mps 718 mmHg 29%
07:00 +22°C° 0 mm 0 mps 719 mmHg 28%
08:00 +28°C° 0 mm 1 mps 719 mmHg 23%
09:00 +33°C° 0 mm 1 mps 720 mmHg 18%
10:00 +37°C° 0 mm 1 mps 720 mmHg 14%
11:00 +40°C° 0 mm 1 mps 719 mmHg 12%
12:00 +42°C° 0 mm 1 mps 718 mmHg 11%
13:00 +43°C° 0 mm 1 mps 718 mmHg 10%
14:00 +43°C° 0 mm 1 mps 717 mmHg 10%
15:00 +42°C° 0 mm 1 mps 716 mmHg 10%
16:00 +41°C° 0 mm 1 mps 715 mmHg 10%
17:00 +37°C° 0 mm 1 mps 715 mmHg 13%
18:00 +33°C° 0 mm 1 mps 716 mmHg 16%
19:00 +30°C° 0 mm 1 mps 716 mmHg 19%
20:00 +29°C° 0 mm 1 mps 716 mmHg 21%
21:00 +25°C° 0 mm 0 mps 716 mmHg 22%
22:00 +24°C° 0 mm 0 mps 717 mmHg 23%
23:00 +23°C° 0 mm 0 mps 717 mmHg 25%
Show more